FW2380 Weather Reports


time (UTC)temp
C
wind
direction
speed
KPH
gust
KPH
rain 1hr
cm
rain 24hr
cm
rain mn
cm
humidity
%
barometer
mb
20260506214527 28 283 0.0 1.6 0.00 0.00 0.00 30 1008.5
20260506213120 27 274 0.0 14.5 0.00 0.00 0.00 30 1008.7
20260506211519 28 171 6.4 12.9 0.00 0.00 0.00 30 1008.8
20260506210011 27 213 0.0 0.0 0.00 0.00 0.00 31 1008.9
20260506204507 27 259 1.6 11.3 0.00 0.00 0.00 33 1009.3
20260506203001 27 207 0.0 8.0 0.00 0.00 0.00 38 1009.4
20260506201557 26 173 0.0 0.0 0.00 0.00 0.00 40 1009.7
20260506200053 26 114 0.0 9.7 0.00 0.00 0.00 39 1010.0
20260506194552 25 299 1.6 16.1 0.00 0.00 0.00 40 1010.1
20260506193050 25 194 3.2 12.9 0.00 0.00 0.00 39 1010.3
20260506191539 25 303 1.6 8.0 0.00 0.00 0.00 41 1010.6
20260506190037 24 215 1.6 6.4 0.00 0.00 0.00 40 1010.7
20260506184531 23 67 0.0 6.4 0.00 0.00 0.00 41 1011.0
20260506183027 23 339 0.0 0.0 0.00 0.00 0.00 39 1011.0
20260506181521 22 109 0.0 4.8 0.00 0.00 0.00 41 1011.0
20260506180017 21 83 0.0 0.0 0.00 0.00 0.00 42 1011.2
20260506174512 20 355 0.0 0.0 0.00 0.00 0.00 43 1011.3
20260506173008 20 76 0.0 0.0 0.00 0.00 0.00 43 1011.7
20260506171504 18 146 0.0 9.7 0.00 0.00 0.00 46 1011.8
20260506170110 18 107 0.0 9.7 0.00 0.00 0.00 46 1012.0
20260506164555 17 69 0.0 0.0 0.00 0.00 0.00 47 1012.1
20260506163050 16 135 1.6 11.3 0.00 0.00 0.00 49 1012.1
20260506161546 15 161 0.0 0.0 0.00 0.00 0.00 51 1012.4
20260506160048 14 190 0.0 0.0 0.00 0.00 0.00 55 1012.2
20260506154537 13 165 0.0 0.0 0.00 0.00 0.00 57 1012.2
20260506153032 12 165 0.0 0.0 0.00 0.00 0.00 58 1012.4
20260506151530 12 166 0.0 0.0 0.00 0.00 0.00 58 1012.4
20260506150025 11 189 0.0 0.0 0.00 0.00 0.00 48 1012.5
20260506144521 10 191 0.0 1.6 0.00 0.00 0.00 1 1012.5
20260506143015 10 191 0.0 0.0 0.00 0.00 0.00 1 1012.5
20260506141511 8 191 0.0 0.0 0.00 0.00 0.00 1 1012.6
20260506140007 8 191 0.0 0.0 0.00 0.00 0.00 1 1012.5
20260506134502 7 191 0.0 0.0 0.00 0.00 0.00 1 1012.5
20260506133113 6 191 0.0 0.0 0.00 0.00 0.00 1 1012.4
20260506131601 6 191 0.0 0.0 0.00 0.00 0.00 1 1012.4
20260506130054 6 191 0.0 0.0 0.00 0.00 0.00 1 1012.1
20260506124546 6 191 0.0 0.0 0.00 0.00 0.00 1 1012.0
20260506123041 6 191 0.0 0.0 0.00 0.00 0.00 1 1011.9
20260506121536 6 191 0.0 0.0 0.00 0.00 0.00 1 1011.7
20260506120034 6 191 0.0 0.0 0.00 0.00 0.00 3 1011.7
20260506114528 6 191 0.0 0.0 0.00 0.00 0.00 5 1011.6
20260506113024 7 191 0.0 0.0 0.00 0.00 0.00 8 1011.4
20260506111518 7 191 0.0 0.0 0.00 0.00 0.00 9 1011.4
20260506110015 7 191 0.0 0.0 0.00 0.00 0.00 13 1011.4
20260506104511 7 191 0.0 0.0 0.00 0.00 0.00 18 1011.2
20260506103008 7 191 0.0 0.0 0.00 0.00 0.00 24 1011.2
20260506101506 7 191 0.0 0.0 0.00 0.00 0.00 31 1011.2
20260506100002 7 191 0.0 0.0 0.00 0.00 0.00 36 1011.1
20260506094624 8 191 0.0 0.0 0.00 0.00 0.00 39 1011.1
20260506093058 8 191 0.0 0.0 0.00 0.00 0.00 43 1011.1
20260506091557 8 191 0.0 0.0 0.00 0.00 0.00 43 1011.1
20260506090054 8 191 0.0 0.0 0.00 0.00 0.00 45 1010.9
20260506084551 8 191 0.0 0.0 0.00 0.00 0.00 48 1010.8
20260506083049 9 191 0.0 0.0 0.00 0.00 0.00 50 1010.8
20260506081547 9 191 0.0 0.0 0.00 0.00 0.00 52 1010.7
20260506073040 10 191 0.0 0.0 0.00 0.00 0.00 58 1010.4
20260506071539 11 191 0.0 0.0 0.00 0.00 0.00 57 1010.4
20260506061533 12 191 0.0 0.0 0.00 0.00 0.00 59 1010.0
20260506044530 15 191 0.0 0.0 0.00 0.00 0.00 55 1009.1
20260506043028 15 191 0.0 0.0 0.00 0.00 0.00 53 1009.1
20260506041527 16 191 0.0 0.0 0.00 0.00 0.00 53 1008.8
20260506040027 17 191 0.0 0.0 0.00 0.00 0.00 50 1008.6
20260506034527 18 191 0.0 0.0 0.00 0.00 0.00 49 1008.5
20260506033026 19 191 0.0 0.0 0.00 0.00 0.00 46 1008.4
20260506031526 20 191 0.0 0.0 0.00 0.00 0.00 42 1008.2
20260506030031 21 191 0.0 0.0 0.00 0.00 0.00 38 1008.1
20260506024540 22 191 0.0 0.0 0.00 0.00 0.00 36 1007.9
20260506023024 23 191 0.0 0.0 0.00 0.00 0.00 33 1008.0
20260506021524 24 191 0.0 0.0 0.00 0.00 0.00 30 1008.0
20260506020023 25 191 0.0 0.0 0.00 0.00 0.00 29 1008.0
20260506014524 25 191 0.0 0.0 0.00 0.00 0.00 27 1008.0
20260506013022 25 191 0.0 0.0 0.00 0.00 0.00 27 1007.9
20260506011522 25 191 0.0 4.8 0.00 0.00 0.00 26 1008.1
20260506010021 25 189 0.0 6.4 0.00 0.00 0.00 26 1008.3
20260506004521 25 202 0.0 3.2 0.00 0.00 0.00 27 1008.3
20260506003020 25 223 0.0 3.2 0.00 0.00 0.00 27 1008.4
20260506001519 24 165 0.0 6.4 0.00 0.00 0.00 27 1008.6
20260506000018 24 173 0.0 0.0 0.00 0.00 0.00 26 1008.8
20260505234527 24 138 0.0 4.8 0.00 0.00 0.00 26 1009.0
20260505233020 25 342 0.0 3.2 0.00 0.00 0.00 25 1009.1
20260505231518 25 196 0.0 0.0 0.00 0.00 0.00 26 1009.1
20260505230037 25 125 0.0 8.0 0.00 0.00 0.00 24 1009.3
20260505224517 26 82 0.0 9.7 0.00 0.00 0.00 24 1009.3
20260505223014 26 207 0.0 0.0 0.00 0.00 0.00 26 1009.6
20260505221515 25 77 0.0 11.3 0.00 0.00 0.00 26 1009.7
20260505220014 25 82 0.0 9.7 0.00 0.00 0.00 27 1009.8